FW1441 Weather Reports


Display with metric or nautical units.
time (UTC)temp
F
wind
direction
speed
MPH
gust
MPH
rain 1hr
in
rain 24hr
in
rain mn
in
humidity
%
barometer
mb
20220123065209 36 145 0.0 0.0 0.00 0.00 0.00 75 1028.5
20220123064709 35 114 0.0 0.0 0.00 0.00 0.00 77 1028.6
20220123064208 35 114 0.0 1.0 0.00 0.00 0.00 76 1028.5
20220123063706 35 106 0.0 1.0 0.00 0.00 0.00 78 1028.8
20220123063205 35 114 0.0 0.0 0.00 0.00 0.00 80 1029.0
20220123062704 34 114 0.0 0.0 0.00 0.00 0.00 81 1028.8
20220123062203 34 90 0.0 0.0 0.00 0.00 0.00 81 1029.1
20220123061703 33 82 0.0 1.0 0.00 0.00 0.00 81 1028.9
20220123061203 33 106 0.0 1.0 0.00 0.00 0.00 81 1029.3
20220123060701 33 90 0.0 1.0 0.00 0.00 0.00 81 1029.0
20220123060201 33 90 0.0 0.0 0.00 0.00 0.00 79 1028.8
20220123055700 32 23 1.0 2.0 0.00 0.00 0.00 78 1029.0
20220123055159 32 60 0.0 0.0 0.00 0.00 0.00 81 1029.1
20220123054657 32 60 0.0 1.0 0.00 0.00 0.00 83 1029.1
20220123054156 31 82 1.0 1.0 0.00 0.00 0.00 81 1029.0
20220123053654 32 40 0.0 0.0 0.00 0.00 0.00 81 1029.0
20220123053154 32 40 0.0 0.0 0.00 0.00 0.00 80 1029.0
20220123052653 31 90 0.0 0.0 0.00 0.00 0.00 76 1029.0
20220123052152 31 75 0.0 1.0 0.00 0.00 0.00 76 1029.2
20220123051650 32 35 0.0 0.0 0.00 0.00 0.00 75 1029.2
20220123051149 32 35 0.0 2.0 0.00 0.00 0.00 75 1029.2
20220123050648 32 60 0.0 0.0 0.00 0.00 0.00 74 1029.2
20220123050147 31 77 1.0 1.0 0.00 0.00 0.00 75 1029.3
20220123045645 32 140 0.0 0.0 0.00 0.00 0.00 75 1029.2
20220123045143 31 66 0.0 0.0 0.00 0.00 0.00 76 1029.1
20220123044643 31 66 0.0 0.0 0.00 0.00 0.00 74 1029.1
20220123044142 31 90 0.0 0.0 0.00 0.00 0.00 73 1029.4
20220123043641 32 90 0.0 0.0 0.00 0.00 0.00 73 1029.2
20220123043140 32 90 0.0 1.0 0.00 0.00 0.00 75 1029.3
20220123042638 31 98 0.0 1.0 0.00 0.00 0.00 72 1029.4
20220123042139 31 120 0.0 1.0 0.00 0.00 0.00 73 1029.4
20220123041638 32 111 0.0 0.0 0.00 0.00 0.00 73 1029.6
20220123041137 32 111 0.0 1.0 0.00 0.00 0.00 72 1029.5
20220123040637 32 74 0.0 0.0 0.00 0.00 0.00 71 1029.6
20220123040135 32 74 0.0 0.0 0.00 0.00 0.00 71 1029.7
20220123035634 32 74 0.0 0.0 0.00 0.00 0.00 71 1029.6
20220123035132 32 74 0.0 0.0 0.00 0.00 0.00 71 1029.6
20220123034632 32 74 0.0 0.0 0.00 0.00 0.00 71 1029.4
20220123034132 32 74 0.0 0.0 0.00 0.00 0.00 71 1029.5
20220123033630 32 74 0.0 0.0 0.00 0.00 0.00 72 1029.5
20220123033130 32 74 0.0 0.0 0.00 0.00 0.00 72 1029.5
20220123032628 33 74 0.0 0.0 0.00 0.00 0.00 69 1029.5
20220123032126 33 106 0.0 0.0 0.00 0.00 0.00 69 1029.8
20220123031627 33 90 0.0 0.0 0.00 0.00 0.00 71 1029.3
20220123031125 33 106 0.0 1.0 0.00 0.00 0.00 69 1029.7
20220123030624 33 90 0.0 0.0 0.00 0.00 0.00 72 1029.6
20220123030123 33 90 0.0 0.0 0.00 0.00 0.00 72 1029.5
20220123025621 33 60 0.0 0.0 0.00 0.00 0.00 70 1029.6
20220123025120 34 60 0.0 1.0 0.00 0.00 0.00 72 1029.4
20220123024618 34 74 0.0 1.0 0.00 0.00 0.00 64 1029.5
20220123024117 34 90 0.0 0.0 0.00 0.00 0.00 65 1029.8
20220123023616 34 90 0.0 0.0 0.00 0.00 0.00 63 1029.8
20220123023116 34 106 0.0 0.0 0.00 0.00 0.00 66 1029.8
20220123022615 34 106 0.0 1.0 0.00 0.00 0.00 64 1029.8
20220123022114 35 114 0.0 0.0 0.00 0.00 0.00 69 1029.9
20220123021612 35 114 0.0 0.0 0.00 0.00 0.00 61 1029.7
20220123021112 36 114 0.0 0.0 0.00 0.00 0.00 55 1029.9
20220123020612 36 114 0.0 0.0 0.00 0.00 0.00 54 1029.7
20220123020111 36 157 0.0 0.0 0.00 0.00 0.00 52 1029.5
20220123015607 37 165 0.0 0.0 0.00 0.00 0.00 52 1029.7
20220123015106 37 23 0.0 0.0 0.00 0.00 0.00 52 1029.4
20220123014605 37 23 0.0 0.0 0.00 0.00 0.00 55 1029.5
20220123014104 37 23 0.0 0.0 0.00 0.00 0.00 52 1029.5
20220123013602 37 23 0.0 0.0 0.00 0.00 0.00 50 1029.3
20220123013102 37 23 0.0 0.0 0.00 0.00 0.00 51 1029.5
20220123012602 38 23 0.0 0.0 0.00 0.00 0.00 51 1029.4
20220123012100 38 23 0.0 0.0 0.00 0.00 0.00 51 1029.1
20220123011559 38 23 0.0 0.0 0.00 0.00 0.00 53 1029.4
20220123011058 38 23 0.0 0.0 0.00 0.00 0.00 56 1029.3
20220123010556 39 23 0.0 0.0 0.00 0.00 0.00 65 1029.3
20220123010054 40 23 0.0 0.0 0.00 0.00 0.00 51 1029.1
20220123005552 40 23 0.0 0.0 0.00 0.00 0.00 47 1029.3
20220123005051 40 23 0.0 0.0 0.00 0.00 0.00 45 1029.3
20220123004550 41 23 0.0 0.0 0.00 0.00 0.00 44 1029.4
20220123004049 42 23 0.0 0.0 0.00 0.00 0.00 43 1029.2
20220123003547 42 23 0.0 0.0 0.00 0.00 0.00 42 1029.1
20220123003046 43 23 0.0 0.0 0.00 0.00 0.00 42 1029.1
20220123002544 43 23 0.0 0.0 0.00 0.00 0.00 40 1029.2
20220123002044 44 23 0.0 0.0 0.00 0.00 0.00 38 1029.0
20220123001542 46 23 0.0 0.0 0.00 0.00 0.00 37 1029.0
20220123001041 47 23 0.0 1.0 0.00 0.00 0.00 35 1029.0
20220123000537 48 23 0.0 1.0 0.00 0.00 0.00 34 1029.0
20220123000036 49 111 1.0 3.0 0.00 0.00 0.00 32 1028.8
20220122235535 49 75 2.0 5.0 0.00 0.00 0.00 32 1029.0
20220122235033 50 45 2.0 3.0 0.00 0.00 0.00 31 1028.9
20220122234531 50 61 3.0 5.0 0.00 0.00 0.00 31 1029.2
20220122234031 50 99 2.0 3.0 0.00 0.00 0.00 31 1029.1
20220122233530 50 45 4.0 8.0 0.00 0.00 0.00 30 1029.0
20220122233028 51 115 4.0 6.0 0.00 0.00 0.00 30 1028.9
20220122232527 51 75 4.0 7.0 0.00 0.00 0.00 29 1029.0
20220122232026 51 47 3.0 7.0 0.00 0.00 0.00 30 1028.9
20220122231524 51 48 2.0 6.0 0.00 0.00 0.00 29 1028.9
20220122231024 51 95 4.0 6.0 0.00 0.00 0.00 29 1029.2
20220122230523 52 90 2.0 7.0 0.00 0.00 0.00 28 1029.2
20220122230021 52 11 1.0 4.0 0.00 0.00 0.00 29 1029.3
20220122225520 52 102 5.0 6.0 0.00 0.00 0.00 28 1029.3
20220122225019 52 29 3.0 5.0 0.00 0.00 0.00 29 1029.2
20220122224519 52 104 3.0 7.0 0.00 0.00 0.00 28 1029.5
20220122224018 52 78 5.0 6.0 0.00 0.00 0.00 28 1029.5
20220122223516 52 109 3.0 4.0 0.00 0.00 0.00 29 1029.5
20220122223016 51 8 6.0 7.0 0.00 0.00 0.00 29 1029.5
20220122222513 52 43 4.0 9.0 0.00 0.00 0.00 28 1029.6
20220122222011 52 111 3.0 7.0 0.00 0.00 0.00 28 1029.4
20220122221509 51 17 2.0 7.0 0.00 0.00 0.00 28 1029.5
20220122221008 52 0 1.0 4.0 0.00 0.00 0.00 28 1029.6
20220122220507 52 63 6.0 8.0 0.00 0.00 0.00 28 1029.6
20220122220005 52 102 0.0 9.0 0.00 0.00 0.00 28 1029.5
20220122215504 52 300 1.0 6.0 0.00 0.00 0.00 28 1029.5
20220122215003 52 42 5.0 7.0 0.00 0.00 0.00 28 1029.6
20220122214501 52 90 3.0 4.0 0.00 0.00 0.00 28 1029.4
20220122214000 52 105 2.0 6.0 0.00 0.00 0.00 28 1029.6
20220122213500 52 45 3.0 8.0 0.00 0.00 0.00 28 1029.6
20220122213000 53 126 3.0 6.0 0.00 0.00 0.00 27 1029.7
20220122212459 52 102 4.0 9.0 0.00 0.00 0.00 28 1029.7
20220122211957 52 108 6.0 9.0 0.00 0.00 0.00 27 1029.6
20220122211457 53 359 4.0 8.0 0.00 0.00 0.00 27 1029.7
20220122210955 52 100 6.0 10.0 0.00 0.00 0.00 27 1029.7
20220122210454 52 77 7.0 11.0 0.00 0.00 0.00 27 1029.8
20220122205955 52 81 8.0 8.0 0.00 0.00 0.00 27 1029.8
20220122205453 52 113 5.0 9.0 0.00 0.00 0.00 27 1029.9
20220122204952 51 88 7.0 11.0 0.00 0.00 0.00 28 1030.0
20220122204451 52 95 4.0 6.0 0.00 0.00 0.00 27 1030.0
20220122203950 51 84 5.0 12.0 0.00 0.00 0.00 27 1029.9
20220122203448 52 23 3.0 9.0 0.00 0.00 0.00 28 1029.9
20220122202947 51 83 5.0 12.0 0.00 0.00 0.00 27 1030.0
20220122202445 51 82 4.0 9.0 0.00 0.00 0.00 27 1030.4
20220122201945 51 14 3.0 9.0 0.00 0.00 0.00 28 1030.4
20220122201445 51 28 5.0 10.0 0.00 0.00 0.00 28 1030.4
20220122200945 51 1 4.0 10.0 0.00 0.00 0.00 29 1030.3
20220122200445 51 353 9.0 9.0 0.00 0.00 0.00 28 1030.6
20220122195943 51 345 3.0 10.0 0.00 0.00 0.00 28 1030.6
20220122195442 51 40 9.0 9.0 0.00 0.00 0.00 28 1030.8
20220122194940 50 26 4.0 6.0 0.00 0.00 0.00 29 1030.8
20220122194439 51 66 5.0 9.0 0.00 0.00 0.00 29 1031.0
20220122193938 50 18 2.0 7.0 0.00 0.00 0.00 28 1031.0
20220122193437 50 82 2.0 7.0 0.00 0.00 0.00 29 1031.1
20220122192937 50 51 7.0 7.0 0.00 0.00 0.00 28 1031.3
20220122192436 50 66 7.0 13.0 0.00 0.00 0.00 29 1031.6
20220122191935 50 10 3.0 10.0 0.00 0.00 0.00 28 1031.4
20220122191435 50 312 4.0 8.0 0.00 0.00 0.00 29 1031.7
20220122190933 49 34 3.0 8.0 0.00 0.00 0.00 29 1031.6
20220122190433 49 20 6.0 9.0 0.00 0.00 0.00 29 1031.8
20220122185933 49 85 4.0 9.0 0.00 0.00 0.00 28 1032.0
20220122185432 48 349 3.0 9.0 0.00 0.00 0.00 30 1032.1
20220122184930 48 69 6.0 9.0 0.00 0.00 0.00 29 1032.1
20220122184431 48 121 5.0 15.0 0.00 0.00 0.00 31 1032.2
20220122183929 49 9 4.0 5.0 0.00 0.00 0.00 30 1032.5
20220122183428 48 135 4.0 11.0 0.00 0.00 0.00 30 1032.9
20220122182926 48 83 8.0 10.0 0.00 0.00 0.00 30 1032.8
20220122182425 48 116 8.0 13.0 0.00 0.00 0.00 30 1033.1
20220122181924 47 80 7.0 12.0 0.00 0.00 0.00 30 1033.4
20220122181423 46 69 5.0 9.0 0.00 0.00 0.00 31 1033.4
20220122180921 47 64 7.0 10.0 0.00 0.00 0.00 30 1034.0
20220122180420 46 92 10.0 13.0 0.00 0.00 0.00 31 1033.6
20220122175919 46 103 3.0 10.0 0.00 0.00 0.00 32 1033.6
20220122175418 46 70 4.0 8.0 0.00 0.00 0.00 32 1033.8
20220122174918 45 90 1.0 9.0 0.00 0.00 0.00 33 1033.7
20220122174418 46 116 3.0 9.0 0.00 0.00 0.00 32 1033.8
20220122173917 45 0 5.0 10.0 0.00 0.00 0.00 33 1033.9
20220122173416 45 67 5.0 8.0 0.00 0.00 0.00 33 1033.9
20220122172914 44 90 3.0 11.0 0.00 0.00 0.00 34 1034.0
20220122172414 44 93 3.0 11.0 0.00 0.00 0.00 33 1034.3
20220122171913 44 90 8.0 15.0 0.00 0.00 0.00 34 1034.3
20220122171411 43 63 8.0 9.0 0.00 0.00 0.00 36 1034.3
20220122170911 43 106 3.0 10.0 0.00 0.00 0.00 36 1034.3
20220122170410 44 120 4.0 7.0 0.00 0.00 0.00 36 1034.5
20220122165906 43 88 4.0 10.0 0.00 0.00 0.00 37 1034.3
20220122165405 43 80 4.0 9.0 0.00 0.00 0.00 38 1034.5
20220122164905 43 54 5.0 7.0 0.00 0.00 0.00 38 1034.5
20220122164403 42 86 5.0 8.0 0.00 0.00 0.00 39 1034.6
20220122163902 41 133 5.0 11.0 0.00 0.00 0.00 39 1034.6
20220122163400 41 86 7.0 8.0 0.00 0.00 0.00 39 1034.6
20220122162900 41 84 4.0 9.0 0.00 0.00 0.00 38 1034.8
20220122162400 41 104 4.0 5.0 0.00 0.00 0.00 39 1034.8
20220122161858 41 102 4.0 5.0 0.00 0.00 0.00 39 1034.5
20220122161357 40 90 3.0 5.0 0.00 0.00 0.00 39 1034.7
20220122160855 40 82 4.0 7.0 0.00 0.00 0.00 41 1034.4
20220122160353 39 45 5.0 6.0 0.00 0.00 0.00 41 1034.4
20220122155853 39 85 6.0 7.0 0.00 0.00 0.00 42 1034.3
20220122155352 39 121 2.0 5.0 0.00 0.00 0.00 43 1034.3
20220122154852 38 103 5.0 6.0 0.00 0.00 0.00 43 1034.4
20220122154351 38 101 2.0 6.0 0.00 0.00 0.00 45 1034.6
20220122153849 38 90 2.0 4.0 0.00 0.00 0.00 48 1034.4
20220122153347 37 79 2.0 5.0 0.00 0.00 0.00 46 1034.4
20220122152847 37 99 7.0 7.0 0.00 0.00 0.00 46 1034.4
20220122152346 36 105 4.0 7.0 0.00 0.00 0.00 47 1034.4
20220122151846 36 345 4.0 7.0 0.00 0.00 0.00 49 1034.2
20220122151345 35 87 3.0 6.0 0.00 0.00 0.00 49 1034.4
20220122150844 36 339 2.0 5.0 0.00 0.00 0.00 49 1034.1
20220122150343 35 101 2.0 5.0 0.00 0.00 0.00 49 1034.2
20220122145840 34 11 2.0 6.0 0.00 0.00 0.00 52 1034.3
20220122145339 34 77 2.0 5.0 0.00 0.00 0.00 53 1034.1
20220122144838 34 76 0.0 5.0 0.00 0.00 0.00 55 1034.1
20220122144335 34 53 2.0 2.0 0.00 0.00 0.00 60 1034.0
20220122143834 33 90 0.0 2.0 0.00 0.00 0.00 61 1034.2
20220122143332 32 83 0.0 1.0 0.00 0.00 0.00 67 1034.1
20220122142832 30 59 0.0 3.0 0.00 0.00 0.00 66 1034.0
20220122142331 27 49 1.0 3.0 0.00 0.00 0.00 74 1033.6
20220122141830 25 73 1.0 1.0 0.00 0.00 0.00 83 1033.9
20220122141328 24 120 0.0 1.0 0.00 0.00 0.00 85 1033.9
20220122140827 24 35 0.0 1.0 0.00 0.00 0.00 86 1033.5
20220122140326 23 90 0.0 1.0 0.00 0.00 0.00 88 1033.5
20220122135825 22 66 0.0 1.0 0.00 0.00 0.00 89 1033.6
20220122135323 21 114 0.0 1.0 0.00 0.00 0.00 88 1033.4
20220122134823 21 90 0.0 0.0 0.00 0.00 0.00 87 1033.3
20220122134322 21 111 0.0 1.0 0.00 0.00 0.00 86 1033.3
20220122133821 21 66 0.0 0.0 0.00 0.00 0.00 86 1033.2
20220122133320 21 66 0.0 1.0 0.00 0.00 0.00 87 1032.9
20220122132818 20 114 0.0 1.0 0.00 0.00 0.00 87 1032.9
20220122132317 21 114 0.0 0.0 0.00 0.00 0.00 87 1033.0
20220122131815 21 120 0.0 0.0 0.00 0.00 0.00 87 1032.9
20220122131314 21 120 0.0 0.0 0.00 0.00 0.00 86 1032.8
20220122130812 21 120 0.0 0.0 0.00 0.00 0.00 85 1032.8
20220122130310 21 114 0.0 0.0 0.00 0.00 0.00 85 1032.7
20220122125809 21 114 0.0 1.0 0.00 0.00 0.00 84 1032.7
20220122125308 21 114 0.0 1.0 0.00 0.00 0.00 84 1032.5
20220122124808 21 66 1.0 1.0 0.00 0.00 0.00 84 1032.4
20220122124306 22 98 0.0 2.0 0.00 0.00 0.00 84 1032.5
20220122123805 22 157 0.0 2.0 0.00 0.00 0.00 83 1032.2
20220122123305 22 180 1.0 2.0 0.00 0.00 0.00 82 1031.9
20220122122803 22 120 0.0 2.0 0.00 0.00 0.00 81 1031.9
20220122122305 22 126 0.0 0.0 0.00 0.00 0.00 82 1031.9
20220122121800 22 157 0.0 1.0 0.00 0.00 0.00 82 1031.7
20220122121259 22 157 0.0 1.0 0.00 0.00 0.00 82 1031.9
20220122120759 22 120 0.0 2.0 0.00 0.00 0.00 83 1031.9
20220122120257 22 120 0.0 1.0 0.00 0.00 0.00 84 1031.7
20220122115756 22 114 1.0 1.0 0.00 0.00 0.00 82 1031.7
20220122115255 22 23 0.0 0.0 0.00 0.00 0.00 81 1031.7
20220122114755 23 23 0.0 1.0 0.00 0.00 0.00 81 1031.5
20220122114253 23 90 0.0 1.0 0.00 0.00 0.00 79 1031.6
20220122113752 23 82 0.0 1.0 0.00 0.00 0.00 79 1031.5
20220122113251 23 105 0.0 1.0 0.00 0.00 0.00 79 1031.3
20220122112749 23 105 0.0 0.0 0.00 0.00 0.00 79 1031.3
20220122112248 23 105 0.0 2.0 0.00 0.00 0.00 80 1031.3
20220122111748 23 114 0.0 1.0 0.00 0.00 0.00 80 1031.3
20220122111249 23 148 0.0 0.0 0.00 0.00 0.00 80 1031.1
20220122110749 23 148 0.0 0.0 0.00 0.00 0.00 79 1031.0
20220122110247 23 148 0.0 1.0 0.00 0.00 0.00 81 1031.0
20220122105746 23 114 0.0 0.0 0.00 0.00 0.00 83 1031.2
20220122105245 24 114 0.0 0.0 0.00 0.00 0.00 83 1031.1
20220122104744 24 54 0.0 0.0 0.00 0.00 0.00 82 1030.9
20220122104243 24 54 0.0 0.0 0.00 0.00 0.00 83 1031.2
20220122103741 24 54 0.0 1.0 0.00 0.00 0.00 83 1031.1
20220122103240 24 54 0.0 0.0 0.00 0.00 0.00 85 1031.1
20220122102739 24 82 0.0 0.0 0.00 0.00 0.00 85 1031.3
20220122102239 23 82 0.0 0.0 0.00 0.00 0.00 86 1031.2
20220122101738 23 60 0.0 1.0 0.00 0.00 0.00 88 1031.2
20220122101238 23 66 0.0 1.0 0.00 0.00 0.00 89 1031.0
20220122100738 23 14 0.0 1.0 0.00 0.00 0.00 89 1031.2
20220122100236 23 75 0.0 2.0 0.00 0.00 0.00 88 1031.2
20220122095735 23 83 0.0 0.0 0.00 0.00 0.00 85 1030.9
20220122095235 22 83 0.0 0.0 0.00 0.00 0.00 85 1031.0
20220122094735 22 98 0.0 0.0 0.00 0.00 0.00 87 1030.9
20220122094234 22 105 0.0 1.0 0.00 0.00 0.00 86 1030.9
20220122093734 23 90 0.0 0.0 0.00 0.00 0.00 85 1030.5
20220122093234 23 90 0.0 0.0 0.00 0.00 0.00 85 1030.7
20220122092734 23 66 0.0 0.0 0.00 0.00 0.00 83 1030.8
20220122092233 23 114 0.0 2.0 0.00 0.00 0.00 79 1030.8
20220122091732 23 49 0.0 0.0 0.00 0.00 0.00 77 1030.9
20220122091231 23 114 0.0 1.0 0.00 0.00 0.00 78 1030.9
20220122090729 23 97 0.0 0.0 0.00 0.00 0.00 78 1030.6
20220122090228 23 105 0.0 0.0 0.00 0.00 0.00 79 1030.6
20220122085727 23 105 0.0 0.0 0.00 0.00 0.00 78 1030.5
20220122085226 23 117 0.0 1.0 0.00 0.00 0.00 77 1030.5
20220122084725 24 90 0.0 0.0 0.00 0.00 0.00 77 1030.6
20220122084224 24 145 0.0 1.0 0.00 0.00 0.00 77 1030.7
20220122083722 24 154 0.0 0.0 0.00 0.00 0.00 78 1030.7
20220122083220 24 157 0.0 2.0 0.00 0.00 0.00 78 1030.7
20220122082718 24 29 1.0 1.0 0.00 0.00 0.00 78 1030.7
20220122082217 24 126 0.0 0.0 0.00 0.00 0.00 78 1030.4
20220122081717 24 132 2.0 2.0 0.00 0.00 0.00 78 1030.5
20220122081216 24 172 2.0 2.0 0.00 0.00 0.00 78 1030.1
20220122080717 24 157 0.0 3.0 0.00 0.00 0.00 79 1030.5
20220122080216 24 123 0.0 0.0 0.00 0.00 0.00 78 1030.7
20220122075715 24 123 0.0 0.0 0.00 0.00 0.00 78 1030.4
20220122075214 24 54 0.0 0.0 0.00 0.00 0.00 77 1030.6
20220122074712 24 97 0.0 0.0 0.00 0.00 0.00 75 1030.3
20220122074211 24 97 0.0 1.0 0.00 0.00 0.00 75 1030.3
20220122073710 24 90 0.0 0.0 0.00 0.00 0.00 75 1030.3
20220122073208 25 75 0.0 0.0 0.00 0.00 0.00 75 1030.0
20220122072707 25 75 0.0 0.0 0.00 0.00 0.00 75 1030.0
20220122072206 25 90 0.0 1.0 0.00 0.00 0.00 76 1030.2
20220122071705 25 82 0.0 2.0 0.00 0.00 0.00 77 1030.1
20220122071204 25 123 0.0 1.0 0.00 0.00 0.00 76 1030.2
20220122070704 26 170 2.0 3.0 0.00 0.00 0.00 72 1029.8
20220122070202 26 170 2.0 3.0 0.00 0.00 0.00 72 1029.8
20220122065703 26 114 1.0 2.0 0.00 0.00 0.00 72 1030.0